Duluth, MN

4:50 PM CST on February 24, 2017 (GMT -0600)
Sky Harbor

Weather History for KDYT - September, 2012

Change the Weather History Date:

Friday, September 14, 2012

  Actual Average Record
Temperature  
Mean Temperature 56 °F -  
Max Temperature 66 °F 65 °F 87 °F (1990)
Min Temperature 46 °F 47 °F 29 °F (1963)
Degree Days  
Heating Degree Days 9    
Growing Degree Days 6 (Base 50)    
Moisture  
Dew Point 44 °F    
Average Humidity 66    
Maximum Humidity 88    
Minimum Humidity 42    
Precipitation  
Precipitation 0.00 in - - ()
Sea Level Pressure  
Sea Level Pressure 30.32 in    
Wind  
Wind Speed 6 mph (NE)    
Max Wind Speed 14 mph    
Max Gust Speed 20 mph    
Visibility 10 miles    
Events      
Averages and records for this station are not official NWS values.
T = Trace of Precipitation, MM = Missing Value Source: NWS Daily Summary

Daily Weather History Graph

Daily Weather History Graph

Search for Another Location

Airport or City:

Trip Planner

Search our weather history database for the weather conditions in past years. The results will help you decide how hot, cold, wet, or windy it might be!

Date:

Astronomy

Sep. 14, 2012 Rise Set
Actual Time 6:45 AM CDT 7:20 PM CDT
Civil Twilight 6:14 AM CDT 7:51 PM CDT
Nautical Twilight 5:38 AM CDT 8:27 PM CDT
Astronomical Twilight 5:00 AM CDT 9:04 PM CDT
Moon 5:07 AM CDT (9/14) 6:18 PM CDT (9/14)
Length of Visible Light 13h 36m
Length of Day
12h 35m
Waning Crescent, 2% of the Moon is Illuminated
Sep 14
Waning Crescent
Sep 15
New
Sep 22
First Quarter
Sep 29
Full
Oct 8
Last Quarter

Hourly Weather History & Observations

Time (CDT) Temp. Windchill Dew Point Humidity Pressure Visibility Wind Dir Wind Speed Gust Speed Precip Events Conditions
12:13 AM 57.2 °F - 39.2 °F 51% 30.30 in 10.0 mi NNW 13.8 mph - N/A   Mostly Cloudy
12:33 AM 59.0 °F - 37.4 °F 45% 30.31 in 10.0 mi NW 12.7 mph - N/A   Overcast
12:54 AM 60.8 °F - 37.4 °F 42% 30.30 in 10.0 mi NW 12.7 mph 19.6 mph N/A   Mostly Cloudy
1:13 AM 59.0 °F - 37.4 °F 45% 30.30 in 10.0 mi NW 12.7 mph - N/A   Overcast
1:33 AM 57.2 °F - 37.4 °F 48% 30.31 in 10.0 mi NW 10.4 mph - N/A   Overcast
1:54 AM 59.0 °F - 37.4 °F 45% 30.32 in 10.0 mi NW 8.1 mph - N/A   Overcast
2:13 AM 57.2 °F - 37.4 °F 48% 30.32 in 10.0 mi NW 6.9 mph - N/A   Mostly Cloudy
2:33 AM 55.4 °F - 37.4 °F 51% 30.32 in 10.0 mi WNW 3.5 mph - N/A   Scattered Clouds
2:54 AM 57.2 °F - 39.2 °F 51% 30.32 in 10.0 mi Calm Calm - N/A   Clear
3:13 AM 55.4 °F - 37.4 °F 51% 30.32 in 10.0 mi Calm Calm - N/A   Clear
3:33 AM 55.4 °F - 39.2 °F 54% 30.32 in 10.0 mi North 3.5 mph - N/A   Clear
3:54 AM 51.8 °F - 42.8 °F 71% 30.32 in 10.0 mi Calm Calm - N/A   Clear
4:13 AM 50.0 °F - 42.8 °F 76% 30.31 in 10.0 mi SSE 4.6 mph - N/A   Clear
4:34 AM 50.0 °F - 42.8 °F 76% 30.32 in 10.0 mi SSE 3.5 mph - N/A   Clear
4:53 AM 50.0 °F - 42.8 °F 76% 30.32 in 10.0 mi SSE 3.5 mph - N/A   Clear
5:14 AM 48.2 °F - 42.8 °F 82% 30.32 in 10.0 mi South 3.5 mph - N/A   Clear
5:34 AM 48.2 °F - 42.8 °F 82% 30.32 in 10.0 mi South 3.5 mph - N/A   Clear
5:53 AM 48.2 °F - 42.8 °F 82% 30.32 in 10.0 mi South 3.5 mph - N/A   Clear
6:14 AM 48.2 °F - 42.8 °F 82% 30.33 in 10.0 mi Calm Calm - N/A   Clear
6:34 AM 46.4 °F 45.2 °F 42.8 °F 87% 30.33 in 10.0 mi South 3.5 mph - N/A   Clear
6:53 AM 46.4 °F 45.2 °F 42.8 °F 87% 30.34 in 10.0 mi SSW 3.5 mph - N/A   Clear
7:14 AM 46.4 °F - 42.8 °F 87% 30.35 in 10.0 mi Calm Calm - N/A   Clear
7:34 AM 46.4 °F - 42.8 °F 87% 30.35 in 10.0 mi Calm Calm - N/A   Clear
7:54 AM 48.2 °F - 44.6 °F 87% 30.35 in 10.0 mi Calm Calm - N/A   Clear
8:13 AM 50.0 °F - 44.6 °F 82% 30.35 in 10.0 mi Calm Calm - N/A   Clear
8:34 AM 51.8 °F - 44.6 °F 76% 30.35 in 10.0 mi Calm Calm - N/A   Clear
8:53 AM 53.6 °F - 44.6 °F 72% 30.36 in 10.0 mi Calm Calm - N/A   Clear
9:14 AM 53.6 °F - 44.6 °F 72% 30.37 in 10.0 mi Calm Calm - N/A   Clear
9:34 AM 55.4 °F - 42.8 °F 63% 30.37 in 10.0 mi Calm Calm - N/A   Clear
9:54 AM 55.4 °F - 42.8 °F 63% 30.36 in 10.0 mi Calm Calm - N/A   Clear
10:14 AM 57.2 °F - 44.6 °F 63% 30.36 in 10.0 mi East 3.5 mph - N/A   Clear
10:34 AM 57.2 °F - 44.6 °F 63% 30.37 in 10.0 mi Calm Calm - N/A   Clear
10:53 AM 59.0 °F - 44.6 °F 59% 30.37 in 10.0 mi Calm Calm - N/A   Clear
11:14 AM 60.8 °F - 44.6 °F 55% 30.37 in 10.0 mi East 3.5 mph - N/A   Clear
11:33 AM 60.8 °F - 44.6 °F 55% 30.36 in 10.0 mi ESE 3.5 mph - N/A   Clear
11:54 AM 60.8 °F - 42.8 °F 52% 30.36 in 10.0 mi East 3.5 mph - N/A   Clear
12:13 PM 62.6 °F - 42.8 °F 48% 30.36 in 10.0 mi East 4.6 mph - N/A   Clear
12:33 PM 60.8 °F - 42.8 °F 52% 30.36 in 10.0 mi ESE 4.6 mph - N/A   Clear
12:54 PM 62.6 °F - 44.6 °F 52% 30.35 in 10.0 mi East 4.6 mph - N/A   Clear
1:14 PM 62.6 °F - 41.0 °F 45% 30.34 in 10.0 mi ESE 5.8 mph - N/A   Clear
1:33 PM 64.4 °F - 42.8 °F 45% 30.34 in 10.0 mi East 4.6 mph - N/A   Clear
1:54 PM 64.4 °F - 42.8 °F 45% 30.33 in 10.0 mi East 3.5 mph - N/A   Clear
2:13 PM 64.4 °F - 42.8 °F 45% 30.33 in 10.0 mi East 4.6 mph - N/A   Clear
2:34 PM 64.4 °F - 42.8 °F 45% 30.32 in 10.0 mi ESE 9.2 mph - N/A   Clear
2:54 PM 64.4 °F - 42.8 °F 45% 30.31 in 10.0 mi East 6.9 mph - N/A   Clear
3:13 PM 64.4 °F - 42.8 °F 45% 30.30 in 10.0 mi East 4.6 mph - N/A   Clear
3:34 PM 66.2 °F - 44.6 °F 46% 30.30 in 10.0 mi East 6.9 mph - N/A   Clear
3:53 PM 64.4 °F - 48.2 °F 56% 30.30 in 10.0 mi East 6.9 mph - N/A   Clear
4:14 PM 64.4 °F - 48.2 °F 56% 30.30 in 10.0 mi East 6.9 mph - N/A   Clear
4:34 PM 64.4 °F - 48.2 °F 56% 30.30 in 10.0 mi East 6.9 mph - N/A   Clear
4:53 PM 64.4 °F - 48.2 °F 56% 30.29 in 10.0 mi East 5.8 mph - N/A   Clear
5:14 PM 62.6 °F - 48.2 °F 59% 30.29 in 10.0 mi East 6.9 mph - N/A   Clear
5:34 PM 60.8 °F - 51.8 °F 72% 30.28 in 10.0 mi NNE 8.1 mph - N/A   Clear
5:53 PM 55.4 °F - 51.8 °F 88% 30.28 in 10.0 mi NE 10.4 mph - N/A   Clear
6:14 PM 55.4 °F - 50.0 °F 82% 30.28 in 10.0 mi North 10.4 mph - N/A   Clear
6:33 PM 55.4 °F - 48.2 °F 77% 30.28 in 10.0 mi North 9.2 mph - N/A   Clear
6:53 PM 53.6 °F - 48.2 °F 82% 30.28 in 10.0 mi NNE 9.2 mph - N/A   Clear
7:14 PM 53.6 °F - 48.2 °F 82% 30.28 in 10.0 mi North 10.4 mph - N/A   Clear
7:33 PM 53.6 °F - 48.2 °F 82% 30.28 in 10.0 mi NNE 11.5 mph - N/A   Clear
7:53 PM 53.6 °F - 48.2 °F 82% 30.28 in 10.0 mi NNE 10.4 mph - N/A   Clear
8:14 PM 53.6 °F - 46.4 °F 77% 30.29 in 10.0 mi North 6.9 mph - N/A   Clear
8:33 PM 53.6 °F - 46.4 °F 77% 30.29 in 10.0 mi NNE 6.9 mph - N/A   Clear
8:54 PM 53.6 °F - 46.4 °F 77% 30.30 in 10.0 mi NNE 5.8 mph - N/A   Clear
9:13 PM 53.6 °F - 46.4 °F 77% 30.30 in 10.0 mi NNE 5.8 mph - N/A   Clear
9:34 PM 53.6 °F - 46.4 °F 77% 30.30 in 10.0 mi NNE 3.5 mph - N/A   Clear
9:53 PM 53.6 °F - 46.4 °F 77% 30.30 in 10.0 mi NNE 5.8 mph - N/A   Clear
10:13 PM 53.6 °F - 46.4 °F 77% 30.31 in 10.0 mi NNE 5.8 mph - N/A   Clear
10:34 PM 53.6 °F - 44.6 °F 72% 30.31 in 10.0 mi North 4.6 mph - N/A   Clear
10:53 PM 53.6 °F - 46.4 °F 77% 30.31 in 10.0 mi North 5.8 mph - N/A   Clear
11:14 PM 53.6 °F - 46.4 °F 77% 30.30 in 10.0 mi NNE 9.2 mph - N/A   Clear
11:34 PM 53.6 °F - 46.4 °F 77% 30.30 in 10.0 mi NNE 11.5 mph - N/A   Clear
11:53 PM 53.6 °F - 48.2 °F 82% 30.30 in 10.0 mi NNE 11.5 mph - N/A   Clear